ソーホー彗星

C/1997 L4 ( SOHO )

English version
Home page
Updated on September 29, 1997

---------------------------------------------------------------------

・ プロフィール

発見日 1997年6月14日
発見光度 4-5
発見者 SOHO-LASCO coronagraphs C2 and C3

・ 軌道要素

T 1997 June 15.91048 TT                                 Marsden
q   0.0053687            (2000.0)            P               Q
                   Peri.   84.94151     +0.17987954     -0.98112993
                   Node     6.70076     -0.95219810     -0.19176020
e   1.0            Incl.  142.57948     +0.24690510     -0.02474027
>From 34 observations 1997 June 14-15.

・ 光度変化

        m1 = 15.5 + 5 logΔ + 10.0 log r

---------------------------------------------------------------------

軌道要素は Dr. Brian G. Marsden の計算によるもので、 M.P.E.C. 1997-M08 に掲載されたものです。
光度グラフはComet for Windowsで作成したものです。

---------------------------------------------------------------------

Copyright(C) Seiichi Yoshida (comet@aerith.net). All rights reserved.